Printer-friendly version
Follow the MPC on Twitter Follow the MPC on Facebook The MPC blog
Minor Planet Center

MPEC 2009-U05 : 2009 TF10

The following Minor Planet Electronic Circular may be linked-to from your own Web pages, but must not otherwise be redistributed electronically.

A form allowing access to any MPEC is at the bottom of this page.


Read MPEC 2009-U04 Read MPEC 2009-U06


M.P.E.C. 2009-U05                                Issued 2009 Oct. 16, 16:27 UT

     The Minor Planet Electronic Circulars contain information on unusual
         minor planets and routine data on comets.  They are published
   on behalf of Commission 20 of the International Astronomical Union by the
          Minor Planet Center, Smithsonian Astrophysical Observatory,
                          Cambridge, MA 02138, U.S.A.

             Prepared using the Tamkin Foundation Computer Network

                              MPC@CFA.HARVARD.EDU
          URL http://www.cfa.harvard.edu/iau/mpc.html  ISSN 1523-6714

                                   2009 TF10

Observations:
     K09T10F* C2009 10 15.15782 23 32 13.59 +02 05 35.0          19.0   EU005704
     K09T10F  C2009 10 15.17099 23 32 14.88 +02 05 12.7          18.8   EU005704
     K09T10F  C2009 10 15.18416 23 32 16.19 +02 04 51.2          19.5   EU005704
     K09T10F  C2009 10 15.19733 23 32 17.48 +02 04 29.2          20.1   EU005704
     K09T10F  C2009 10 15.95860 23 33 47.60 +01 42 54.0          19.3 C EU005B33
     K09T10F  C2009 10 15.96183 23 33 47.95 +01 42 48.7          19.4 C EU005B33
     K09T10F  C2009 10 16.04134 23 34 00.17 +01 41 45.5          18.9 R EU005I19
     K09T10F  C2009 10 16.04978 23 34 01.09 +01 41 32.0          19.3 R EU005I19
     K09T10F  C2009 10 16.05616 23 34 01.79 +01 41 21.9          18.7 R EU005I19
     K09T10F  C2009 10 16.14677 23 34 13.49 +01 37 42.2          19.0 R EU005H01
     K09T10F  C2009 10 16.15030 23 34 13.86 +01 37 36.4          19.6 R EU005H01
     K09T10F  C2009 10 16.15378 23 34 14.22 +01 37 30.3          19.3 R EU005H01
     K09T10F  C2009 10 16.15839 23 34 14.71 +01 37 22.5          19.5 R EU005H01
     K09T10F  C2009 10 16.17001 23 34 15.27 +01 36 58.4          18.5 R EU005H36
     K09T10F  C2009 10 16.17156 23 34 15.41 +01 36 56.0          18.5 R EU005H36
     K09T10F  C2009 10 16.17928 23 34 16.22 +01 36 43.1          18.7 R EU005H36
     K09T10F  C2009 10 16.26017 23 34 25.46 +01 34 31.8          18.6 R EU005854
     K09T10F  C2009 10 16.26305 23 34 25.75 +01 34 27.0          19.0 R EU005854
     K09T10F  C2009 10 16.26592 23 34 26.01 +01 34 21.9          19.2 R EU005854
     K09T10F  C2009 10 16.31405 23 34 31.12 +01 33 00.1          18.9 R EU005926
     K09T10F  C2009 10 16.31569 23 34 31.28 +01 32 57.4          19.3 R EU005926
     K09T10F  C2009 10 16.31735 23 34 31.47 +01 32 54.3          19.7 R EU005926
     K09T10F 5C2009 10 16.37903 23 34 38.63 +01 31 06.9          19.5 R EU005673
     K09T10F 5C2009 10 16.38319 23 34 39.08 +01 30 59.4                 EU005673
     K09T10F 5C2009 10 16.38667 23 34 39.44 +01 30 53.0                 EU005673
     K09T10F 5C2009 10 16.39201 23 34 40.13 +01 30 44.2                 EU005673
     K09T10F  C2009 10 16.55044 23 35 01.69 +01 27 20.5          19.6 R EU005E10
     K09T10F  C2009 10 16.55127 23 35 01.81 +01 27 19.0          19.3 R EU005E10
     K09T10F  C2009 10 16.55213 23 35 01.88 +01 27 17.3          18.5 R EU005E10

Observer details:
673 Table Mountain Observatory, Wrightwood.  Observer D. Mayes.  0.6-m f/16
    Cassegrain + CCD.
704 Lincoln Laboratory ETS, New Mexico.  Observers M. Bezpalko, D. Torres,
    R. Kracke, G. Spitz, M. Blythe.  Measurer J. Stuart.  1.0-m f/2.15
    reflector + CCD.
854 Sabino Canyon Observatory, Tucson.  Observer J. E. McGaha.  0.36-m f/10.0
    Schmidt-Cassegrain + CCD.
926 Tenagra II Observatory.  Observers P. R. Holvorcem, M. Schwartz.  Measurer
    P. R. Holvorcem.  0.81-m f/7 Ritchey-Chretien + CCD.
B33 Libbiano Observatory, Peccioli.  Observers P. Bacci, F. Biasci.  Measurer
    P. Bacci.  0.5-m f/8 Ritchey-Chretien + CCD.
E10 Siding Spring-Faulkes Telescope South.  Observer R. Miles.  2.0-m f/10.0
    Ritchey-Chretien + CCD.
H01 Magdalena Ridge Observatory, Socorro.  Observer W. H. Ryan.  2.4-m f/8.9
    reflector + CCD.
H36 Sandlot Observatory, Scranton.  Observer G. Hug.  0.56-m reflector + CCD.
I19 Tanti.  Observer C. Colazo.  0.28-m f/10 Schmidt-Cassegrain + CCD + f/3.3
    focal reducer.

Orbital elements:
2009 TF10                                                Earth MOID = 0.1085 AU
Epoch 2010 Jan. 4.0 TT = JDT 2455200.5                  MPC
M  23.91936              (2000.0)            P               Q
n   0.46074474     Peri.  201.59633     +0.68835462     -0.72433080
a   1.6602078      Node   204.95588     +0.67828613     +0.66174805
e   0.3401618      Incl.    5.28935     +0.25709112     +0.19347977
P   2.14           H   22.2           G   0.15           U   8
Residuals in seconds of arc
091015 704  0.1-  0.1-    091016 H01  0.1-  0.1-    091016 926  0.3-  0.1+
091015 704  0.1-  0.3-    091016 H01  0.1-  0.3-    091016 926  0.2-  0.2-
091015 704  0.2+  0.3+    091016 H01  0.0   0.3-    091016 673  0.3+  0.4+
091015 704  0.4+  0.5+    091016 H36  0.4+  0.6-    091016 673  0.0   0.0
091015 B33  0.2-  0.0     091016 H36  0.0   0.3-    091016 673  0.5-  0.5-
091015 B33  0.1-  0.2+    091016 H36  0.1+  0.1-    091016 673  0.8+  0.1-
091016 I19  0.8-  1.0-    091016 854  0.0   0.6+    091016 E10  0.0   0.4+
091016 I19  0.1-  0.2-    091016 854  0.2-  0.7+    091016 E10  0.5+  0.3+
091016 I19  0.6+  0.5+    091016 854  0.8-  0.5+    091016 E10  0.2+  0.0
091016 H01  0.1-  0.3-    091016 926  0.1-  0.0

Ephemeris:
2009 TF10                a,e,i = 1.66, 0.34, 5                   q = 1.0955
Date    TT    R. A. (2000) Decl.     Delta      r     Elong.  Phase     V
2009 10 16    23 33.90   +01 42.4    0.146    1.128   151.8    24.7    19.4
2009 10 26    23 59.86   -03 05.0    0.135    1.109   146.1    30.0    19.4
2009 11 05    00 36.15   -07 21.2    0.132    1.098   141.6    34.1    19.4
2009 11 15    01 19.20   -10 08.2    0.137    1.096   138.6    36.7    19.6
2009 11 25    02 03.61   -10 50.5    0.150    1.101   137.0    37.7    19.8
2009 12 05    02 44.71   -09 39.1    0.171    1.115   136.4    37.5    20.1
2009 12 15    03 20.24   -07 09.9    0.199    1.137   136.2    36.9    20.5
2009 12 25    03 50.66   -03 58.3    0.237    1.165   135.6    36.2    20.9
2010 01 04    04 17.34   -00 34.2    0.283    1.198   134.5    35.8    21.3
2010 01 14    04 41.50   +02 43.8    0.338    1.237   132.4    36.0    21.8

Sonia Keys                   (C) Copyright 2009 MPC           M.P.E.C. 2009-U05

Read MPEC 2009-U04 Read MPEC 2009-U06


MPEC number:

Enter an MPEC number in one of the following forms:

  • 1997-B01 (the full form)
  • J97B01 (the packed version of the full form)
  • B01 (the abbreviated form)

Valid HTML 4.01!